TimeCDT,TemperatureF,Dew PointF,Humidity,Sea Level PressureIn,VisibilityMPH,Wind Direction,Wind SpeedMPH,Gust SpeedMPH,PrecipitationIn,Events,Conditions,WindDirDegrees,DateUTC
12:53 AM,48.0,46.0,93,30.01,10.0,Calm,Calm,-,N/A,,Clear,0,2012-10-16 05:53:00
1:53 AM,48.0,46.0,93,30.01,10.0,Calm,Calm,-,N/A,,Clear,0,2012-10-16 06:53:00
2:53 AM,46.9,45.0,93,30.00,10.0,Calm,Calm,-,N/A,,Clear,0,2012-10-16 07:53:00
3:53 AM,46.0,45.0,96,30.00,10.0,Calm,Calm,-,0.01,,Clear,0,2012-10-16 08:53:00
5:53 AM,45.0,44.1,97,30.01,10.0,Calm,Calm,-,N/A,,Partly Cloudy,0,2012-10-16 10:53:00
6:07 AM,44.6,44.6,100,30.02,10.0,Calm,Calm,-,N/A,,Mostly Cloudy,0,2012-10-16 11:07:00
6:17 AM,44.6,44.6,100,30.02,9.0,Calm,Calm,-,N/A,,Scattered Clouds,0,2012-10-16 11:17:00
7:53 AM,50.0,48.9,96,30.02,9.0,Calm,Calm,-,N/A,,Clear,0,2012-10-16 12:53:00
8:53 AM,55.9,51.1,84,30.03,10.0,Calm,Calm,-,N/A,,Clear,0,2012-10-16 13:53:00
9:53 AM,63.0,52.0,67,30.02,10.0,Variable,3.5,-,N/A,,Clear,0,2012-10-16 14:53:00
10:53 AM,66.9,46.9,49,30.02,10.0,Calm,Calm,-,N/A,,Clear,0,2012-10-16 15:53:00
11:53 AM,72.0,46.0,40,29.99,10.0,Calm,Calm,-,N/A,,Clear,0,2012-10-16 16:53:00
12:53 PM,72.0,48.0,43,29.98,10.0,West,4.6,-,N/A,,Clear,270,2012-10-16 17:53:00
1:53 PM,73.9,46.0,37,29.94,9.0,Calm,Calm,-,N/A,,Clear,0,2012-10-16 18:53:00
2:53 PM,73.9,48.0,40,29.91,10.0,Variable,5.8,-,N/A,,Clear,0,2012-10-16 19:53:00
3:53 PM,72.0,48.9,44,29.89,10.0,SSE,3.5,-,N/A,,Clear,150,2012-10-16 20:53:00
4:53 PM,72.0,50.0,46,29.88,10.0,SSE,6.9,-,N/A,,Clear,160,2012-10-16 21:53:00
5:53 PM,66.9,53.1,61,29.88,10.0,SSE,4.6,-,N/A,,Clear,160,2012-10-16 22:53:00
6:53 PM,62.1,54.0,75,29.88,10.0,SSE,4.6,-,N/A,,Clear,160,2012-10-16 23:53:00
7:53 PM,62.1,54.0,75,29.88,10.0,South,5.8,-,N/A,,Clear,190,2012-10-17 00:53:00
8:53 PM,62.1,53.1,72,29.89,10.0,Calm,Calm,-,N/A,,Clear,0,2012-10-17 01:53:00
9:53 PM,57.9,54.0,87,29.90,10.0,Calm,Calm,-,N/A,,Clear,0,2012-10-17 02:53:00
10:53 PM,57.0,55.0,93,29.91,10.0,Calm,Calm,-,N/A,,Clear,0,2012-10-17 03:53:00
11:53 PM,57.0,54.0,89,29.91,10.0,ENE,3.5,-,N/A,,Clear,70,2012-10-17 04:53:00